User: anonymous   Login
Location: Brainerd
(46.3580°N, 94.2010°W)
Time: 08:35:54
(UTC-06:00)
Language:

CZ-4C R/B - Orbit

View from above orbital plane
View from above orbital plane
View from above satellite
View from above satellite

Ground track
Ground track

The orbit data is extracted from the following two-line orbital elements,

1 32290U 07055B   17022.37976212  .00002147  00000-0  63644-4 0  9993
2 32290  97.5256 125.9540 0066844 292.3418  67.0749 15.33869040509461
Epoch (UTC): 22 January 2017 09:06:51
Eccentricity: 0.0066844
inclination: 97.5256°
perigee height: 418 km
apogee height: 510 km
right ascension of ascending node: 125.9540°
argument of perigee: 292.3418°
revolutions per day: 15.33869040
mean anomaly at epoch: 67.0749°
orbit number at epoch: 50946

The dashed part of the orbit path shows where the satellite is in the earth's shadow,  

DLR